Theta_e
302 302 302 302 302 302 302 302 302 303 303 304 305 306 307 309 311 312 312 316 317 324 333 347 351 350 354 352 355 352 354 351 345 359 362 354 357 351 349 348 348 347 346 344 347
302 302 302 302 302 302 302 302 302 303 303 303 304 306 306 308 311 315 316 318 316 321 336 343 341 343 344 345 349 350 349 345 341 353 358 356 354 354 352 351 351 348 346 346 349
303 302 302 302 302 302 302 302 303 302 302 303 304 305 306 308 314 311 322 323 318 322 327 334 337 340 342 339 342 345 343 338 338 352 354 355 355 353 351 355 349 349 348 348 349
302 302 302 302 302 302 302 302 302 303 303 303 304 304 306 312 312 317 323 319 321 326 330 330 325 320 321 327 327 331 335 336 347 353 354 355 352 355 352 353 347 345 347 349 350
301 301 301 301 301 301 302 302 303 303 303 304 304 305 311 314 310 315 317 316 320 323 327 323 319 320 323 324 327 328 327 328 344 352 352 353 355 355 354 350 344 345 348 349 349
301 300 300 300 300 301 302 302 303 304 305 306 307 308 312 308 313 314 314 313 318 322 327 322 321 319 321 325 326 326 324 341 345 353 354 355 354 353 353 345 346 347 349 349 349
301 300 300 300 300 301 301 302 305 308 310 310 310 312 318 308 313 318 319 318 322 323 323 324 322 322 323 326 325 323 338 334 340 349 353 353 358 356 351 346 349 349 348 349 349
300 299 299 299 300 301 302 304 306 314 314 312 312 317 309 311 313 313 314 315 323 325 324 323 323 321 321 322 319 322 333 339 336 349 352 349 353 353 349 347 350 349 349 349 348
299 299 298 298 299 300 302 305 314 314 311 313 316 317 311 314 317 314 313 313 313 315 319 324 321 320 322 323 320 317 334 337 337 341 354 344 351 352 350 347 348 349 350 350 349
298 298 297 298 298 300 305 310 315 320 319 320 320 317 312 316 318 319 316 314 316 315 319 323 319 319 315 319 327 321 327 335 339 337 350 345 354 352 350 350 349 349 350 349 348
297 297 297 297 298 302 302 310 304 307 306 318 313 315 316 316 318 318 315 313 320 319 318 320 321 321 321 320 321 322 325 333 336 335 342 342 354 355 350 349 350 349 348 347 346
298 298 297 298 298 305 303 305 304 304 305 308 307 309 313 315 316 317 315 314 318 319 321 320 322 320 321 320 320 321 321 323 331 337 340 342 345 357 353 350 348 348 347 346 345
300 300 298 298 299 301 303 305 303 305 304 308 308 309 310 311 314 315 314 315 316 319 321 322 323 321 321 320 321 319 320 322 332 340 339 339 341 359 356 353 350 349 347 346 346
302 301 299 298 300 299 301 301 302 305 306 310 310 310 313 313 315 317 317 317 317 318 321 323 323 323 322 320 319 319 319 323 330 334 346 340 347 342 353 357 354 352 350 349 348
302 302 300 301 302 301 301 302 303 304 313 316 312 312 313 316 317 317 319 317 317 318 319 319 322 323 323 324 319 321 319 321 327 329 333 340 344 340 346 356 357 354 352 350 348
302 302 300 302 303 304 304 303 305 309 314 316 314 314 315 315 317 318 320 318 317 319 319 319 320 322 323 323 320 320 320 319 321 326 329 328 341 334 341 347 347 349 350 350 348
302 302 300 301 303 303 304 302 306 309 311 314 311 309 311 315 317 320 319 319 318 317 320 320 321 321 322 322 320 318 318 319 322 323 326 326 336 332 333 337 341 342 345 347 346
303 303 300 303 304 303 304 302 309 308 309 310 310 309 311 314 316 318 318 321 318 315 316 320 323 321 320 323 319 318 317 319 325 325 326 328 339 336 334 333 336 337 339 342 344
304 302 300 302 304 303 300 303 305 308 310 310 309 310 309 310 310 318 318 320 321 315 317 318 321 321 318 317 318 317 318 317 319 318 324 325 325 325 327 328 329 334 337 340 342
303 299 299 304 304 303 302 303 303 307 308 308 309 309 308 309 310 313 317 320 319 316 316 317 321 319 320 318 317 316 315 319 314 321 326 322 325 327 329 327 326 330 335 338 340
301 295 298 304 303 299 303 303 307 307 308 309 309 309 308 308 308 310 314 316 319 317 316 315 317 320 319 319 317 316 317 314 316 317 322 323 325 321 325 325 326 328 333 336 339
298 299 302 304 302 300 304 306 308 308 308 308 308 308 309 308 306 310 311 317 317 319 319 316 315 320 319 320 318 315 315 315 318 320 318 321 327 325 323 324 326 328 331 336 337
301 296 302 304 303 306 307 307 308 308 309 309 309 309 309 308 307 308 311 316 315 318 319 316 315 318 322 319 318 317 314 312 311 316 321 324 327 323 322 325 325 337 336 335 335
299 299 298 298 300 303 309 307 309 309 310 308 308 308 308 308 305 307 308 313 313 317 326 323 313 320 321 321 318 321 315 315 316 316 316 321 323 322 326 326 323 323 330 336 335
296 298 302 300 299 300 306 309 310 310 308 307 308 309 308 308 310 307 310 310 313 315 314 314 318 317 319 321 320 320 319 315 316 315 321 320 320 319 320 321 321 322 327 329 333
299 301 302 301 298 302 305 310 310 309 307 308 308 307 306 309 310 310 307 308 312 311 311 312 320 318 318 319 321 322 320 318 317 315 317 316 318 317 320 319 321 322 325 328 329
301 301 302 301 298 301 305 305 309 307 307 307 307 304 306 308 306 306 305 306 304 306 310 313 317 317 321 319 320 322 321 317 316 315 317 318 318 316 319 321 321 322 324 329 330
Wind_Speed
26 27 26 26 26 26 26 26 25 25 25 25 26 26 27 28 30 23 6 8 7 15 13 22 9 9 10 3 4 2 2 2 3 7 4 6 4 4 5 11 3 4 5 13 26
28 28 28 28 27 28 28 28 27 26 25 25 26 24 24 24 25 15 15 10 13 19 19 18 7 7 1 2 1 3 2 5 5 7 8 9 9 9 5 10 4 8 17 28 25
29 30 31 30 30 30 31 30 28 26 27 25 24 22 19 17 6 7 6 12 16 20 15 15 13 6 2 4 5 4 5 4 5 7 14 13 5 3 12 4 5 18 21 23 24
32 32 32 33 33 33 33 32 29 29 27 25 22 19 14 5 6 2 5 11 11 20 10 9 5 5 4 5 5 2 10 6 4 8 9 14 9 5 7 3 11 20 26 24 20
33 34 35 35 36 36 37 34 33 31 28 24 19 12 4 2 10 13 10 14 1 22 12 6 6 5 4 4 2 5 6 6 9 15 8 13 5 3 5 5 17 18 19 19 17
35 37 38 39 39 40 38 37 36 33 26 22 15 3 2 6 14 12 12 7 11 22 14 6 7 7 4 4 2 3 6 4 9 12 8 9 5 5 2 11 18 20 19 16 17
37 39 40 42 42 41 41 40 34 32 27 21 11 7 3 17 6 7 5 4 10 20 7 14 5 3 2 3 3 3 3 7 5 6 5 11 1 4 10 14 16 17 17 14 13
38 40 42 45 44 43 42 33 33 18 13 10 13 10 8 12 13 28 25 14 7 10 6 5 9 4 3 4 5 2 4 4 4 8 4 6 5 5 13 17 15 15 14 14 15
40 42 44 46 45 46 38 34 11 10 8 17 12 5 9 4 7 21 22 10 15 21 11 5 6 4 1 3 3 5 5 4 3 8 7 4 3 8 13 14 15 15 14 13 12
41 44 46 47 47 42 28 12 4 7 8 3 3 2 6 4 5 4 10 20 4 9 5 4 3 3 2 4 6 5 4 4 6 8 8 5 2 12 14 14 17 15 14 13 13
43 45 47 51 48 30 34 4 5 3 5 7 4 5 6 10 4 3 5 14 6 5 7 5 4 8 11 11 4 5 5 7 4 4 5 3 4 13 13 11 13 13 14 14 14
43 44 46 50 42 14 24 6 7 5 11 12 19 17 31 7 5 4 19 7 6 6 7 4 8 8 4 2 5 4 4 3 1 5 6 5 1 10 15 17 15 15 15 16 14
43 45 47 46 24 16 14 7 16 14 5 9 9 7 7 13 10 8 10 6 7 8 8 7 4 12 7 5 6 4 6 5 6 5 4 5 3 6 11 12 13 14 14 13 16
43 45 45 41 5 24 8 15 28 5 4 8 5 7 5 10 6 13 16 7 4 12 10 6 6 13 7 7 6 6 7 6 6 4 4 5 5 5 7 16 17 18 17 17 17
43 44 41 21 14 9 12 23 25 4 6 2 3 1 5 10 5 11 14 3 9 8 9 9 8 11 13 16 10 9 8 9 4 3 4 1 1 6 8 12 20 22 20 20 21
44 43 36 15 13 18 24 22 3 3 8 6 3 2 3 3 5 4 6 3 5 6 3 9 4 10 9 5 11 7 6 8 5 4 1 6 6 7 7 10 11 16 21 23 21
44 43 26 10 10 25 17 4 2 5 7 7 5 6 5 5 4 7 13 11 9 8 6 4 8 3 6 6 3 6 7 2 2 1 6 0 5 12 7 7 14 17 23 23 22
43 40 15 7 22 20 6 5 3 3 7 6 7 11 5 1 7 7 13 15 3 7 5 8 7 11 5 9 8 8 9 6 4 4 4 5 6 11 3 9 12 14 17 17 20
41 31 5 13 22 6 4 2 7 3 6 9 10 4 5 5 4 6 9 22 20 11 8 7 7 1 6 5 10 4 5 7 7 4 3 4 7 10 5 8 6 10 9 18 21
34 12 6 32 11 3 4 6 5 3 7 5 4 4 4 7 7 5 8 13 9 9 7 7 4 5 8 5 1 8 10 4 3 6 4 5 4 6 4 7 11 6 13 15 19
11 4 8 33 4 4 3 6 5 5 6 4 4 6 5 5 4 4 2 6 2 10 7 7 4 4 7 8 9 4 4 5 6 5 7 2 8 8 9 10 11 12 9 13 16
6 4 18 25 3 2 2 8 7 4 2 8 4 7 6 6 5 4 4 4 10 3 15 8 6 5 9 2 7 8 9 7 6 4 1 4 11 6 9 9 8 13 8 9 12
5 3 9 10 4 5 8 6 5 5 4 3 3 2 6 4 5 4 4 3 12 9 5 8 3 3 2 4 3 6 5 6 7 4 8 7 12 3 5 7 6 7 4 7 5
3 4 4 4 1 3 6 7 5 8 6 3 4 5 5 4 7 6 5 6 11 5 8 1 5 14 11 4 6 4 5 5 8 6 6 7 2 4 4 5 8 8 6 5 8
2 2 1 4 3 5 6 4 8 7 5 4 3 5 5 4 5 3 3 6 4 9 6 3 11 7 10 6 6 6 8 9 6 7 13 8 8 10 9 10 8 7 6 7 7
0 1 2 6 4 5 4 1 5 6 4 4 3 12 6 2 2 5 7 3 3 7 6 6 1 5 9 10 8 4 11 15 9 6 5 6 10 9 10 8 8 9 7 10 10
2 3 1 4 5 3 3 4 4 7 6 12 9 8 6 1 5 13 9 10 6 4 4 4 2 4 13 8 6 8 8 7 5 5 10 8 10 6 7 9 11 12 8 10 10
Wind_Direction
5 2 358 355 352 349 347 344 340 336 334 330 329 328 328 323 320 318 245 248 198 189 162 159 167 147 173 198 220 180 40 253 190 166 181 162 121 154 100 139 158 150 151 144 154
4 1 359 354 350 347 344 342 340 335 331 327 327 324 326 328 324 292 296 268 202 192 161 160 158 146 171 229 232 125 137 234 207 158 173 161 144 144 124 160 64 87 110 135 150
1 359 356 353 350 346 343 339 333 334 328 323 322 320 323 334 326 252 86 54 183 190 183 169 148 135 198 173 201 182 222 221 250 169 149 152 131 133 138 216 181 150 143 149 157
358 356 354 351 348 345 341 336 330 325 321 316 314 314 321 343 272 150 184 50 98 180 157 163 135 163 197 215 187 188 241 224 138 143 137 158 128 124 174 227 144 163 155 156 167
357 356 354 350 346 343 340 334 328 321 314 308 306 311 329 259 245 244 271 306 267 177 210 172 151 168 199 211 220 201 270 231 161 155 139 130 150 158 214 94 136 149 159 165 166
357 357 354 350 346 342 338 332 325 317 309 300 291 261 161 244 259 270 267 250 195 180 181 185 195 200 205 238 182 260 298 61 148 143 136 132 137 118 134 130 140 153 166 172 177
357 356 353 349 346 343 337 330 326 314 299 281 249 178 204 234 225 196 51 157 182 184 148 205 227 146 167 255 275 312 86 62 78 133 140 106 145 219 145 147 152 162 168 176 185
357 355 353 349 346 342 335 333 326 326 315 254 176 158 242 264 260 248 239 240 163 182 203 159 222 220 205 287 19 67 63 107 198 133 165 151 255 145 154 152 164 168 175 180 186
356 355 352 348 347 342 337 334 344 25 42 125 133 180 262 278 239 249 234 198 227 223 217 116 146 188 140 150 32 1 158 146 183 164 154 212 238 158 161 164 173 176 183 192 198
355 353 351 348 347 342 345 346 53 60 74 40 91 332 258 222 246 226 208 196 146 121 132 154 79 122 39 114 193 187 145 142 185 193 165 176 226 158 171 174 185 185 190 199 203
354 353 349 347 347 344 351 13 10 352 3 228 215 273 284 331 294 215 167 146 119 107 153 176 133 192 196 191 148 145 129 165 230 200 138 218 162 175 182 188 190 195 196 205 210
354 351 348 344 345 358 2 72 80 305 298 250 243 251 258 295 312 294 151 127 147 161 129 84 206 205 202 186 133 127 120 176 236 166 147 131 269 187 191 206 194 197 203 206 210
352 352 350 345 347 355 7 93 341 346 241 283 215 209 204 164 212 244 171 152 147 143 167 156 227 159 156 180 175 178 165 168 159 108 53 120 304 181 207 211 209 211 213 215 212
350 351 351 342 359 337 341 329 335 327 309 272 246 263 155 135 238 188 186 158 157 177 136 192 198 168 171 183 148 196 177 155 153 115 188 146 260 239 204 213 214 212 208 211 216
348 349 349 351 319 321 316 321 332 142 321 240 202 208 178 187 161 209 175 102 163 159 131 220 173 165 178 197 161 216 154 162 132 112 93 347 76 261 179 227 222 219 211 213 213
346 346 344 343 331 326 323 321 351 56 246 311 73 25 121 272 307 82 153 114 147 121 110 192 179 163 194 155 169 170 86 49 53 103 51 209 160 269 188 212 234 216 213 213 210
342 342 341 327 323 334 325 353 38 197 328 338 342 358 311 225 233 176 178 168 161 138 164 162 209 202 150 112 113 84 85 28 26 78 210 244 134 241 249 226 223 209 208 208 206
341 338 347 335 336 335 331 57 222 267 284 347 333 307 224 169 246 203 170 181 229 113 134 157 200 179 195 172 166 169 154 148 152 192 224 96 223 246 243 213 218 220 210 205 203
342 338 351 356 342 328 65 112 209 262 333 319 320 333 315 338 16 182 191 193 189 162 145 143 233 197 173 145 140 184 159 175 104 7 101 214 286 304 311 293 256 229 181 193 201
337 323 297 351 344 117 89 224 240 243 348 343 322 5 313 314 359 12 175 193 183 174 138 199 171 217 190 112 147 151 169 124 16 134 201 283 276 235 277 296 297 268 212 200 200
348 356 0 351 146 51 188 231 262 267 357 329 319 325 285 297 327 301 304 1 186 179 143 145 118 222 122 194 160 141 162 60 112 138 167 209 260 203 227 247 264 279 228 200 196
7 342 349 351 45 52 335 319 300 302 267 249 242 231 250 301 298 292 307 16 341 302 185 199 144 186 194 175 170 166 174 146 138 196 125 157 256 197 220 237 259 271 262 201 197
331 274 335 7 52 344 319 297 277 310 292 331 292 339 292 267 293 271 275 359 14 23 194 178 195 135 104 9 354 179 172 121 105 96 184 156 244 268 270 262 284 277 234 192 185
15 343 323 20 308 358 317 310 307 306 279 335 273 336 335 263 210 270 324 314 349 2 334 125 154 195 206 205 134 133 143 158 154 174 165 224 176 277 257 260 287 314 304 215 195
37 282 1 302 331 317 302 282 310 341 333 300 356 0 301 289 310 260 336 314 312 351 0 100 207 181 193 161 154 155 172 169 162 170 195 221 214 245 247 262 252 252 282 314 251
16 349 1 288 286 298 290 319 305 337 305 309 16 330 302 285 138 295 14 274 286 325 12 351 288 132 197 200 183 202 189 180 185 157 205 173 238 209 248 275 290 264 277 271 250
270 251 193 276 307 324 283 345 307 345 272 251 308 320 302 219 297 271 226 255 259 328 315 17 77 134 211 160 118 242 207 167 169 183 181 193 227 193 236 231 242 261 243 255 268